Regional Weather Roundup
Issued by NWS New Orleans/Baton Rouge, LA

Home | Current Version | Previous Version | Text Only | Print | Product List | Glossary On
Versions: 1 2 3 4 5 6 7 8 9 10 11 12 13 14 15 16 17 18 19 20 21 22 23 24 25 26 27 28 29 30 31 32 33 34 35 36 37 38 39 40 41 42 43 44 45 46 47 48 49 50
564
ASUS44 KLIX 232111
RWRLIX
NEW ORLEANS REGIONAL WEATHER ROUNDUP
NATIONAL WEATHER SERVICE NEW ORLEANS LA
400 PM CDT MON MAY 23 2016

NOTE: "FAIR" INDICATES FEW OR NO CLOUDS BELOW 12,000 FEET WITH NO
      SIGNIFICANT WEATHER AND/OR OBSTRUCTIONS TO VISIBILITY.
      SKY/WX - SKY CONDITION AND SIGNIFICANT WEATHER.
      TMP - AIR TEMPERATURE.     DP    - DEWPOINT TEMPERATURE.
      RH  - RELATIVE HUMIDITY.   PRES  - PRESSURE.
      HI  - HEAT INDEX.          WCI   - WIND CHILL INDEX.

*  THESE STATIONS ARE NOT NWS OR FAA STATIONS AND ARE NOT UNDER
   NWS QUALITY CONTROL.

LAZ038-040-048-061>063-065>067-069-232200-
SOUTHEAST LOUISIANA

CITY           SKY/WX    TMP DP  RH WIND       PRES   REMARKS
N.O. AUDUBON     N/A     88  64  45 MISG        N/A
N.O. INTL ARPT PTSUNNY   85  63  47 NE10      29.96F
N.O. LAKEFRONT MOSUNNY   84  59  42 E9        29.97F
N.O. DOWNTOWN* MOCLDY    85  62  46 SE8       29.97F
RESERVE*         N/A     86  63  46 E7        29.95F
SLIDELL        SUNNY     83  60  45 S10       29.96F
BATON ROUGE    MOSUNNY   87  62  43 VRB6      29.94F
BOOTHVILLE     SUNNY     81  65  58 NE8       29.98F
BELLE CHASSE   MOSUNNY   83  62  49 VRB5      29.97F
BOGALUSA*        N/A     86  52  30 W3        29.98F
GALLIANO*      PTCLDY    84  64  49 SE5       29.97F
NEW ROADS*       N/A     83  63  49 S3        29.94F
GONZALES*      MOCLDY    84  64  52 CALM      29.94F
HAMMOND*       SUNNY     86  54  32 S7        29.95F
HOUMA*         MOSUNNY   84  68  58 SE7       29.96F
PORT FOURCHON* CLEAR     81  66  61 SE9       29.98F

$$

MSZ070-080>082-232200-
SOUTHERN MISSISSIPPI

CITY           SKY/WX    TMP DP  RH WIND       PRES   REMARKS
MCCOMB         SUNNY     84  52  33 SE6       29.96F
GULFPORT       SUNNY     82  55  39 S9        29.97F
BILOXI         NOT AVBL
PASCAGOULA     SUNNY     82  55  39 S7        29.98F
STENNIS ARPT*  MOSUNNY   82  50  32 S9        29.97F

$$

COASTAL OBSERVATIONS
LAKE AND NEARSHORE STATIONS

STATION/POSITION TIME  TEMP    WIND        PRES    WAVE
                       AIR SEA DIR/SP/G            HT/PER
                 (UTC) (F)     (DEG/KT/KT) (MB)    (FT/S)
PASCAGOULA       2000   81     180/  6/  8 1015.4
WAVELAND YACHT   2000   78 78  150/  8/  9 1015.8
GRAND ISLE       2000   81 80  100/  4/  7 1015.2
SOUTHWEST PASS   2000          120/  5/  9   N/A
NEW CANAL        2000   79 80   50/ 13/ 14 1014.3
SHELL BEACH      2000   80 80   90/  6/ 10 1015.3

OFFSHORE STATIONS

STATION/POSITION TIME  TEMP    WIND        PRES    WAVE
                       AIR SEA DIR/SP/G            HT/PER
                 (UTC) (F)     (DEG/KT/KT) (MB)    (FT/S)
64 S DAUPHIN ISL 2000   78 78  100/  6/  8 1015.0

$$





USA.gov is the U.S. government's official web portal to all federal, state and local government web resources and services.